Al Hoceima, Morocco

10:42 PM WET on December 04, 2016 (GMT +0000)
Cherif Al Idrissi

Weather History for GMTA - May, 2013

Change the Weather History Date:

Sunday, May 12, 2013

  Actual Average Record
Temperature  
Mean Temperature 68 °F -  
Max Temperature 74 °F 68 °F 81 °F (2014)
Min Temperature 62 °F 56 °F 51 °F (2001)
Cooling Degree Days 3    
Growing Degree Days 18 (Base 50)    
Moisture  
Dew Point 64 °F    
Average Humidity 77    
Maximum Humidity 88    
Minimum Humidity 68    
Precipitation  
Precipitation 0.00 in - - ()
Sea Level Pressure  
Sea Level Pressure 30.09 in    
Wind  
Wind Speed 5 mph ()    
Max Wind Speed 12 mph    
Max Gust Speed -    
Visibility 2.1 miles    
Events      
Averages and records for this station are not official NWS values.
T = Trace of Precipitation, MM = Missing Value Source: Averaged Metar Reports

Daily Weather History Graph

Daily Weather History Graph

Search for Another Location

Airport or City:

Trip Planner

Search our weather history database for the weather conditions in past years. The results will help you decide how hot, cold, wet, or windy it might be!

Date:

Astronomy

May. 12, 2013 Rise Set
Actual Time 6:13 AM WEST 8:10 PM WEST
Civil Twilight 5:45 AM WEST 8:38 PM WEST
Nautical Twilight 5:11 AM WEST 9:12 PM WEST
Astronomical Twilight 4:35 AM WEST 9:48 PM WEST
Moon 7:58 AM WEST (5/12) 10:25 PM WEST (5/12)
Length of Visible Light 14h 52m
Length of Day
13h 56m
Waxing Crescent, 5% of the Moon is Illuminated
May 12
Waxing Crescent
May 18
First Quarter
May 25
Full
May 31
Last Quarter
Jun 8
New

Hourly Weather History & Observations

Time (WEST) Temp. Dew Point Humidity Pressure Visibility Wind Dir Wind Speed Gust Speed Precip Events Conditions
1:00 AM 67 °F 62 °F 79% 30.09 in 1 mi West 2.3 mph - -   Mist
1:00 AM 66.2 °F 62.6 °F 88% 30.06 in 1.2 mi West 2.3 mph - N/A   Mostly Cloudy
7:00 AM 66 °F 61 °F 80% 30.09 in 1 mi West 4.6 mph - -   Mist
7:00 AM 66.2 °F 60.8 °F 83% 30.06 in 0.7 mi West 4.6 mph - N/A   Mostly Cloudy
8:00 AM 68.0 °F 62.6 °F 83% 30.09 in 0.7 mi WNW 2.3 mph - N/A   Mostly Cloudy
9:00 AM 69.8 °F 64.4 °F 83% 30.09 in 1.2 mi West 2.3 mph - N/A   Mostly Cloudy
10:00 AM 70 °F 63 °F 72% 30.12 in 1 mi North 4.6 mph - -   Mist
10:00 AM 69.8 °F 62.6 °F 78% 30.12 in 1.2 mi North 4.6 mph - N/A   Mostly Cloudy
10:20 AM 69.8 °F 62.6 °F 78% 30.12 in 1.2 mi NNW 4.6 mph - N/A   Mostly Cloudy
11:00 AM 69.8 °F 66.2 °F 88% 30.12 in 1.2 mi East 6.9 mph - N/A   Mostly Cloudy
12:00 PM 73.4 °F 66.2 °F 78% 30.09 in 1.2 mi NNE 11.5 mph - N/A   Mostly Cloudy
1:00 PM 72 °F 64 °F 69% 30.11 in 1 mi NE 11.5 mph - -   Mist
1:00 PM 71.6 °F 64.4 °F 78% 30.09 in 1.2 mi NE 11.5 mph - N/A   Mostly Cloudy
2:00 PM 71.6 °F 64.4 °F 78% 30.09 in 1.2 mi NNE 11.5 mph - N/A   Mostly Cloudy
3:00 PM 71.6 °F 64.4 °F 78% 30.09 in 3.1 mi NNE 11.5 mph - N/A   Overcast
4:00 PM 73 °F 65 °F 68% 30.09 in 3 mi NNE 6.9 mph - -   Overcast
4:00 PM 73.4 °F 64.4 °F 73% 30.06 in 3.1 mi NNE 6.9 mph - N/A   Overcast
5:00 PM 73.4 °F 64.4 °F 73% 30.06 in 3.1 mi NNE 6.9 mph - N/A   Overcast
6:00 PM 71.6 °F 64.4 °F 78% 30.06 in 3.1 mi NNE 6.9 mph - N/A   Overcast
7:00 PM 72 °F 64 °F 68% 30.07 in 4 mi NE 6.9 mph - -   Mostly Cloudy
7:00 PM 71.6 °F 64.4 °F 78% 30.06 in 3.7 mi NE 6.9 mph - N/A   Mostly Cloudy
8:00 PM 71.6 °F 62.6 °F 73% 30.06 in 3.7 mi ENE 9.2 mph - N/A   Mostly Cloudy
9:00 PM 71.6 °F 62.6 °F 73% 30.09 in 3.7 mi ENE 2.3 mph - N/A   Mostly Cloudy
10:00 PM 70 °F 62 °F 70% 30.13 in 3 mi WNW 4.6 mph - -   Mostly Cloudy
10:00 PM 69.8 °F 62.6 °F 78% 30.12 in 3.1 mi WNW 4.6 mph - N/A   Mostly Cloudy